Regional Weather Roundup
Issued by NWS

Home | Current Version | Previous Version | Text Only | Print | Product List | Glossary Off
Versions: 1 2 3 4 5 6 7 8 9 10 11 12 13 14 15 16 17 18 19 20 21 22 23 24 25 26 27 28 29 30 31 32 33 34 35 36 37 38 39 40 41 42 43 44 45 46 47 48 49 50

000
ASUS43 KLOT 050801
RWRIL

ILLINOIS REGIONAL WEATHER ROUNDUP
NATIONAL WEATHER SERVICE CHICAGO/ROMEOVILLE IL
300 AM CDT WED AUG 05 2015

NOTE: "FAIR" INDICATES FEW OR NO CLOUDS BELOW 12,000 FEET WITH NO
SIGNIFICANT WEATHER AND/OR OBSTRUCTIONS TO VISIBILITY.

* THESE STATIONS ARE NOT UNDER NWS QUALITY CONTROL. THEY ALSO MAY NOT
  REPORT WEATHER SUCH AS PRECIPITATION OR FOG.

ILZ001-002-007-009-015-016-024-050900-
NORTHWEST ILLINOIS

CITY           SKY/WX    TMP DP  RH WIND       PRES   REMARKS
MOLINE         PTCLDY    63  60  90 CALM      30.03S
STERLING*      PTCLDY    57  55  94 CALM      30.01S
$$

ILZ003-004-008-010-011-017-018-050900-
NORTH CENTRAL ILLINOIS

CITY           SKY/WX    TMP DP  RH WIND       PRES   REMARKS
ROCKFORD       MOCLDY    57  54  89 S3        30.05S
$$

ILZ005-006-012>014-019>023-050900-
NORTHEAST ILLINOIS

CITY           SKY/WX    TMP DP  RH WIND       PRES   REMARKS
CHICAGO-OHARE  PTCLDY    63  59  87 CALM      30.02F
CHICAGO-MIDWAY MOCLDY    69  60  73 CALM      30.02S
AURORA         PTCLDY    56  53  90 CALM      30.04F
WAUKEGAN       CLEAR     64  58  80 W5        30.02F
DUPAGE AIRPORT PTCLDY    61  56  83 CALM      30.03S
WHEELING       CLEAR     63  58  83 CALM      30.04S
NORTHERLY ISL    N/A     70  59  68 SW1         N/A
$$

LMZ740>746-050900-
SOUTHERN LAKE MICHIGAN

STATION/POSITION SKY/WX   TEMP    WIND        PRES    VSBY  WAVE
                          AIR SEA DIR/SP/G                  HT/PER
                          (F)     (DEG/KT/KT) (MB)    (MI)  (FT/S)
HARRISON CRIB              71     180/  7/  9   N/A
BURNHAM HARBOR             71     240/  3/  4   N/A
CALUMET HARBOR             69     200/  3/  5   N/A
BURNS HARBOR               67     180/  6/  8 1017.3S
MICHIGAN CITY              67     140/  6/  6   N/A
MICHIGAN CITY 6N           71 73  200/  6/  8   N/A           1
ST. JOSEPH                 71 74  230/  6/  6   N/A           0
$$

ILZ025>027-034>036-040-047-049-050-058-095>099-050900-
WEST-CENTRAL ILLINOIS

CITY           SKY/WX    TMP DP  RH WIND       PRES   REMARKS
QUINCY         FAIR      68  63  84 E7        30.00F
MACOMB*        PTCLDY    62  62  99 NE3       30.04S
$$

ILZ028>032-037-038-041>044-048-051>054-059>061-050900-
CENTRAL ILLINOIS

CITY           SKY/WX    TMP DP  RH WIND       PRES   REMARKS
DECATUR        PTCLDY    66  63  90 NE3       30.03S
PEORIA         CLEAR     67  62  84 CALM      30.04R
SPRINGFIELD    PTCLDY    66  63  90 CALM      30.03S
TAYLORVILLE    NOT AVBL
$$

ILZ033-039-045-046-055>057-062-063-050900-
EAST-CENTRAL ILLINOIS

CITY           SKY/WX    TMP DP  RH WIND       PRES   REMARKS
CHAMPAIGN      MOCLDY    64  61  90 SE3       30.04R
MATTOON        CLEAR     65  61  87 CALM      30.03R
$$

ILZ079-100>102-050900-
SOUTHWEST ILLINOIS

CITY           SKY/WX    TMP DP  RH WIND       PRES   REMARKS
BELLEVILLE     MOCLDY    72  72 100 NE6       29.98F
CAHOKIA*       MOCLDY    74  69  85 NE8       29.99S
$$

ILZ064>066-069>071-074>076-080>082-084>086-088>090-092>094-050900-
SOUTH-CENTRAL ILLINOIS

CITY           SKY/WX    TMP DP  RH WIND       PRES   REMARKS
CARBONDALE     PTCLDY    72  69  90 CALM      29.98S
MT. VERNON     MOCLDY    70  64  83 NE6       30.01S
SALEM*         MOCLDY    72  69  88 CALM      30.02R
$$

ILZ067-068-072-073-078-083-087-091-050900-
SOUTHEAST ILLINOIS

CITY           SKY/WX    TMP DP  RH WIND       PRES   REMARKS
LAWRENCEVILLE  PTCLDY    69  66  90 N9        30.01F
HARRISBURG*    PTCLDY    70  70 100 NE3       30.00S
$$

ABBREVIATIONS USED IN REMARKS
   TC - TEMPERATURE IN CELSIUS
  WCI - WIND CHILL INDEX
   HX - HEAT INDEX
  VSB - VISIBILITY
$$




USA.gov is the U.S. government's official web portal to all federal, state and local government web resources and services.